Location: *
(46.1866°S, 178.5290°W)
Time: 22:27:54
(UTC+00:00)

H-2A R/B - Visible Passes

Search period start: 25 September 2021 00:00
Search period end: 05 October 2021 00:00
Orbit: 529 x 650 km, 98.3° (Epoch: 25 September)

Date Brightness Start Highest point End Pass type
(mag) Time Alt. Az. Time Alt. Az. Time Alt. Az.
25 Sep 2.6 07:38:51 10° S 07:42:55 76° WSW 07:47:06 10° NNW visible
25 Sep 5.7 16:59:15 10° E 17:00:42 12° ESE 17:02:10 10° SE visible
26 Sep 2.9 07:46:43 10° S 07:50:46 63° WSW 07:54:54 10° NNW visible
27 Sep 3.3 07:54:35 10° S 07:58:35 52° WSW 08:02:41 10° NNW visible
28 Sep 3.8 06:27:50 10° SE 06:30:47 19° E 06:33:48 10° NE visible
28 Sep 3.7 08:02:30 10° S 08:06:25 43° WSW 08:10:26 10° NW visible
29 Sep 3.6 06:35:24 10° SE 06:38:42 22° E 06:42:03 10° NNE visible
29 Sep 4.0 08:10:25 10° S 08:14:14 36° WSW 08:18:08 10° NW visible
30 Sep 3.4 06:43:02 10° SE 06:46:36 27° E 06:50:14 10° NNE visible
30 Sep 4.3 08:18:22 10° S 08:22:02 31° WSW 08:25:48 10° NW visible
01 Oct 3.2 06:50:43 10° SSE 06:54:30 32° E 06:58:21 10° NNE visible
01 Oct 4.7 08:26:20 10° S 08:29:50 27° WSW 08:33:25 10° WNW visible
02 Oct 3.0 06:58:25 10° SSE 07:02:22 38° E 07:06:25 10° NNE visible
02 Oct 4.9 08:34:19 10° SSW 08:37:38 23° WSW 08:41:00 10° WNW visible
03 Oct 2.8 07:06:10 10° SSE 07:10:15 46° E 07:14:26 10° N visible
03 Oct 5.2 08:42:21 10° SSW 08:45:25 20° WSW 08:48:32 10° WNW visible
04 Oct 2.6 07:13:56 10° SSE 07:18:07 55° E 07:22:23 10° N visible
04 Oct 5.4 08:50:26 10° SSW 08:53:11 17° WSW 08:55:59 10° WNW visible
